| time (UTC) | temp F | wind direction | speed knots | gust knots | rain 1hr in | rain 24hr in | rain mn in | humidity % | barometer mb |
| 20260504214408 | 58 | 83 | 0.0 | 0.0 | 0.00 | 0.00 | 0.00 | 72 | 1014.7 |
| 20260504212903 | 58 | 84 | 0.0 | 0.0 | 0.00 | 0.00 | 0.00 | 67 | 1014.8 |
| 20260504211404 | 59 | 84 | 0.0 | 0.9 | 0.00 | 0.00 | 0.00 | 65 | 1014.7 |
| 20260504205902 | 61 | 82 | 0.0 | 2.6 | 0.00 | 0.00 | 0.00 | 61 | 1014.7 |
| 20260504204408 | 61 | 93 | 0.9 | 2.6 | 0.00 | 0.00 | 0.00 | 62 | 1014.8 |
| 20260504202910 | 61 | 59 | 0.0 | 2.6 | 0.00 | 0.00 | 0.00 | 63 | 1014.8 |
| 20260504201402 | 60 | 98 | 0.0 | 2.6 | 0.00 | 0.00 | 0.00 | 63 | 1014.9 |
| 20260504195902 | 60 | 103 | 0.0 | 2.6 | 0.00 | 0.00 | 0.00 | 62 | 1015.1 |
| 20260504194359 | 60 | 103 | 0.0 | 2.6 | 0.00 | 0.00 | 0.00 | 62 | 1014.8 |
| 20260504192908 | 60 | 118 | 0.0 | 0.0 | 0.00 | 0.00 | 0.00 | 62 | 1014.6 |
| 20260504191402 | 61 | 118 | 0.0 | 0.9 | 0.00 | 0.00 | 0.00 | 58 | 1014.7 |
| 20260504185858 | 63 | 121 | 0.0 | 1.7 | 0.00 | 0.00 | 0.00 | 55 | 1014.9 |
| 20260504184401 | 64 | 121 | 0.0 | 0.9 | 0.00 | 0.00 | 0.00 | 54 | 1014.7 |
| 20260504182859 | 65 | 121 | 0.0 | 1.7 | 0.00 | 0.00 | 0.00 | 52 | 1014.6 |
| 20260504181359 | 66 | 121 | 0.9 | 0.9 | 0.00 | 0.00 | 0.00 | 50 | 1014.6 |
| 20260504175858 | 67 | 122 | 0.9 | 0.9 | 0.00 | 0.00 | 0.00 | 49 | 1014.6 |
| 20260504174359 | 68 | 158 | 0.0 | 0.9 | 0.00 | 0.00 | 0.00 | 47 | 1014.6 |
| 20260504172837 | 69 | 185 | 0.0 | 0.0 | 0.00 | 0.00 | 0.00 | 45 | 1014.6 |
| 20260504171329 | 70 | 197 | 0.0 | 0.0 | 0.00 | 0.00 | 0.00 | 46 | 1014.8 |
| 20260504141307 | 76 | 274 | 0.9 | 3.5 | 0.00 | 0.00 | 0.00 | 39 | 1015.7 |
| 20260504081307 | 64 | 158 | 3.5 | 6.1 | 0.00 | 0.00 | 0.00 | 47 | 1017.8 |
| 20260504045817 | 53 | 231 | 0.0 | 5.2 | 0.00 | 0.00 | 0.00 | 59 | 1017.9 |
| 20260504044307 | 52 | 71 | 1.7 | 5.2 | 0.00 | 0.00 | 0.00 | 58 | 1017.2 |
| 20260504042806 | 52 | 60 | 0.0 | 3.5 | 0.00 | 0.00 | 0.00 | 59 | 1017.3 |
| 20260504041306 | 51 | 60 | 2.6 | 3.5 | 0.00 | 0.00 | 0.00 | 59 | 1017.2 |
| 20260504035806 | 50 | 29 | 0.0 | 2.6 | 0.00 | 0.00 | 0.00 | 60 | 1017.1 |
| 20260504034305 | 50 | 72 | 0.9 | 2.6 | 0.00 | 0.00 | 0.00 | 60 | 1017.3 |
| 20260504032805 | 51 | 81 | 0.0 | 1.7 | 0.00 | 0.00 | 0.00 | 57 | 1017.2 |
| 20260504031307 | 52 | 50 | 1.7 | 6.1 | 0.00 | 0.00 | 0.00 | 57 | 1017.2 |
| 20260504025807 | 53 | 52 | 1.7 | 7.0 | 0.00 | 0.00 | 0.00 | 54 | 1017.2 |
| 20260504024305 | 54 | 94 | 2.6 | 8.7 | 0.00 | 0.00 | 0.00 | 54 | 1017.0 |
| 20260504022805 | 54 | 89 | 3.5 | 7.8 | 0.00 | 0.00 | 0.00 | 54 | 1016.9 |
| 20260504021306 | 54 | 22 | 3.5 | 6.1 | 0.00 | 0.00 | 0.00 | 54 | 1017.2 |
| 20260504015806 | 55 | 81 | 1.7 | 6.1 | 0.00 | 0.00 | 0.00 | 54 | 1017.2 |
| 20260504014303 | 55 | 54 | 2.6 | 7.8 | 0.00 | 0.00 | 0.00 | 52 | 1017.1 |
| 20260504012815 | 55 | 82 | 4.3 | 7.8 | 0.00 | 0.00 | 0.00 | 52 | 1017.1 |
| 20260504011330 | 55 | 67 | 2.6 | 9.6 | 0.00 | 0.00 | 0.00 | 52 | 1016.9 |
| 20260504005916 | 55 | 105 | 3.5 | 7.0 | 0.00 | 0.00 | 0.00 | 52 | 1016.9 |
| 20260504004306 | 55 | 70 | 1.7 | 6.1 | 0.00 | 0.00 | 0.00 | 53 | 1017.0 |
| 20260504002812 | 55 | 70 | 1.7 | 5.2 | 0.00 | 0.00 | 0.00 | 53 | 1016.9 |
| 20260504001347 | 56 | 84 | 2.6 | 5.2 | 0.00 | 0.00 | 0.00 | 53 | 1016.9 |
| 20260503235807 | 56 | 102 | 0.9 | 6.1 | 0.00 | 0.00 | 0.00 | 53 | 1016.7 |
| 20260503234305 | 56 | 71 | 2.6 | 7.0 | 0.00 | 0.00 | 0.00 | 52 | 1016.6 |
| 20260503232806 | 56 | 93 | 1.7 | 7.0 | 0.00 | 0.00 | 0.00 | 52 | 1016.6 |
| 20260503231306 | 57 | 43 | 0.9 | 6.1 | 0.00 | 0.00 | 0.00 | 51 | 1016.9 |
| 20260503225805 | 57 | 83 | 1.7 | 5.2 | 0.00 | 0.00 | 0.00 | 51 | 1016.9 |
| 20260503224306 | 58 | 75 | 2.6 | 6.1 | 0.00 | 0.00 | 0.00 | 50 | 1016.9 |
| 20260503222806 | 59 | 79 | 2.6 | 7.0 | 0.00 | 0.00 | 0.00 | 49 | 1016.9 |
| 20260503221305 | 59 | 59 | 1.7 | 7.8 | 0.00 | 0.00 | 0.00 | 49 | 1016.8 |
| 20260503215805 | 59 | 67 | 1.7 | 8.7 | 0.00 | 0.00 | 0.00 | 49 | 1017.0 |